This is the latest recevied weather packets stored in our database for station/object KG5TTF. If no packets are shown the sender has not sent any weather packets the latest 10 day(s).
| Time | Temp. | Humidity | Pressure | Rain* | Wind** | Luminosity | Snow |
|---|---|---|---|---|---|---|---|
| 1777688768 | 8.33° C | 35% | 1024.4 hPa | 0 mm | - | 0 W/m² | - |
| 1777688466 | 8.33° C | 35% | 1024.2 hPa | 0 mm | - | 0 W/m² | - |
| 1777688163 | 8.33° C | 34% | 1024.3 hPa | 0 mm | - | 0 W/m² | - |
| 1777687859 | 8.33° C | 33% | 1024.3 hPa | 0 mm | - | 0 W/m² | - |
| 1777687557 | 8.89° C | 33% | 1024.1 hPa | 0 mm | - | 1 W/m² | - |
| 1777687254 | 8.89° C | 32% | 1024.2 hPa | 0 mm | - | 1 W/m² | - |
| 1777686952 | 9.44° C | 31% | 1024.1 hPa | 0 mm | - | 2 W/m² | - |
| 1777686648 | 10° C | 32% | 1024.3 hPa | 0 mm | - | 4 W/m² | - |
| 1777686345 | 10° C | 29% | 1024.1 hPa | 0 mm | - | 7 W/m² | - |
| 1777686042 | 10° C | 28% | 1024.1 hPa | 0 mm | - | 9 W/m² | - |
| 1777685738 | 10.56° C | 27% | 1023.7 hPa | 0 mm | - | 12 W/m² | - |
| 1777685434 | 10.56° C | 27% | 1023.7 hPa | 0 mm | - | 14 W/m² | - |
| 1777685132 | 11.11° C | 25% | 1023.6 hPa | 0 mm | - | 19 W/m² | - |
| 1777684829 | 11.67° C | 24% | 1023.7 hPa | 0 mm | - | 24 W/m² | - |
| 1777684526 | 11.67° C | 25% | 1023.7 hPa | 0 mm | - | 31 W/m² | - |
| 1777684222 | 11.67° C | 24% | 1023.6 hPa | 0 mm | - | 37 W/m² | - |
| 1777683920 | 12.22° C | 22% | 1023.7 hPa | 0 mm | - | 46 W/m² | - |
| 1777683616 | 12.22° C | 22% | 1023.6 hPa | 0 mm | - | 56 W/m² | - |
| 1777683314 | 12.78° C | 21% | 1023.7 hPa | 0 mm | - | 67 W/m² | - |
| 1777683011 | 12.78° C | 21% | 1023.5 hPa | 0 mm | - | 77 W/m² | - |
| 1777682707 | 13.33° C | 20% | 1023.6 hPa | 0 mm | - | 88 W/m² | - |
| 1777682404 | 13.33° C | 19% | 1023.6 hPa | 0 mm | - | 103 W/m² | - |
| 1777682101 | 13.33° C | 20% | 1023.6 hPa | 0 mm | - | 107 W/m² | - |
| 1777681797 | 12.78° C | 20% | 1023.8 hPa | 0 mm | - | 122 W/m² | - |
| 1777681495 | 12.78° C | 20% | 1023.7 hPa | 0 mm | - | 132 W/m² | - |
* Rain latest hour (hover to see other rain measurements)
** Current wind speed in m/s (hover to see current wind gust speed)